Location: Zagreb
(45.8000°N, 16.0000°E)
Time: 02:54:49
(UTC+02:00)

Transit 2A Rocket - Pass Details

Date: 23 January 2022
Orbit: 592 x 909 km, 66.7° (Epoch: 26 May)

Event Time Altitude Azimuth Distance (km) Brightness Sun altitude
Enters shadow 22:29:19 - 291° (WNW) 3,558 8.9 -56.6°
Rises 22:29:22 0° 291° (WNW) 3,543 - -56.6°
Reaches altitude 10° 22:34:05 10° 324° (NW) 2,594 - -57.2°
Maximum altitude 22:36:01 11° 343° (NNW) 2,477 - -57.4°
Drops below altitude 10° 22:37:56 10° 2° (N) 2,569 - -57.6°
Sets 22:42:32 0° 34° (NE) 3,455 - -58.2°
